Resoconti di bolidi

Jul 01, 2021 - Aug 01, 2021
Trovati resoconti: 1723  negli ultimi 30 giorni  Pagina 5 / 35
IDDate e tempo T.U. (Tempo Universale)Data e tempo localeRegioneCittàStatoDur.MagnitudineSuono differitoSuono contemporaneoFrag.OsservatoreLivello di esperienza
Evento 4046-2021
4046c2021-07-26 07:02 UT2021-07-26 02:02 CDTUS NashvilleTN≈3,5s -8---JamesS 2
4046d2021-07-26 07:05 UT2021-07-26 02:05 CDTUS MurfreesboroTN≈3,5s -15--LorieB 1
4046e2021-07-26 07:05 UT2021-07-26 02:05 CDTUS TN≈3,5s -13---KeithS 1
4046f2021-07-26 07:07 UT2021-07-26 02:07 CDTUS KY≈3,5s -13---ChadE 3
4046g2021-07-26 07:10 UT2021-07-26 02:10 CDTUS DicksonTN≈20s -13?-Amy W 3
4046h2021-07-26 07:10 UT2021-07-26 02:10 CDTUS NashvilleTN≈3,5s -13---CarleneC 1
4046i2021-07-26 07:15 UT2021-07-26 03:15 EDTUS BereaKY≈1,5s -7---KiraR 2
4046j2021-07-26 07:20 UT2021-07-26 02:20 CDTUS CadizKY≈1,5s 0--JuliaC 2
4046k2021-07-26 07:06 UT2021-07-26 03:06 EDTUS CincinnatiOH≈1,5s -7---DennisZ 1
4046l2021-07-26 07:10 UT2021-07-26 02:10 CDTUS Bowling GreenKY≈1,5s -13--BeckyT 3
Evento 4045-2021
4045a2021-07-26 06:09 UT2021-07-25 23:09 PDTUS PortlandOR<1s -13---BRIANY 1
Evento 4044-2021
4044a2021-07-26 05:10 UT2021-07-26 01:10 EDTUS BeavertonMI≈1,5s -20---ScottL 4
4044b2021-07-26 05:12 UT2021-07-26 01:12 EDTCA Sault Ste. MarieOntario≈1,5s -14---KaseyD 1
4044c2021-07-26 05:14 UT2021-07-26 00:14 CDTUS New LondonWI≈1,5s -13--Bob M 2
4044d2021-07-26 05:17 UT2021-07-26 01:17 EDTUS MidlandMI≈3,5s -13---StephanieW 3
4044e2021-07-26 05:20 UT2021-07-26 01:20 EDTUS ≈3,5s -14?--JoyC 1
4044f2021-07-26 05:20 UT2021-07-26 01:20 EDTUS Kent CityMI≈1,5s -16--LindsayO 4
4044g2021-07-26 05:23 UT2021-07-26 01:23 EDTUS MidlandMI≈1,5s -20---RachelD 1
4044h2021-07-26 05:33 UT2021-07-26 01:33 EDTUS ConstantineMI≈1,5s -15---LeeT 1
4044i2021-07-26 05:45 UT2021-07-26 01:45 EDTUS Au Sable Charter TownshipMI≈3,5s -13---ClaytonB 1
4044j2021-07-26 05:30 UT2021-07-26 01:30 EDTUS SaginawMI≈3,5s -20---JoeyG 2
4044k2021-07-26 05:30 UT2021-07-26 01:30 EDTUS CheboyganMI≈7,5s -20---NickV 1
4044l2021-07-26 05:30 UT2021-07-26 01:30 EDTUS BeavertonMI<1s -13???SethB 1
4044m2021-07-26 05:21 UT2021-07-26 01:21 EDTUS MI≈3,5s -16---MorganS 2
4044n2021-07-26 05:40 UT2021-07-26 01:40 EDTUS PentwaterMI≈3,5s -13---MattW 2
4044o2021-07-26 05:25 UT2021-07-26 01:25 EDTUS WilliamsburgMI? -14---TerryM 1
4044p2021-07-26 06:00 UT2021-07-26 02:00 EDTUS CharlevoixMI≈3,5s -16??JadeW 2
4044q2021-07-26 05:00 UT2021-07-26 01:00 EDTUS Commerce Charter TownshipMI≈3,5s -11--SarahW 1
4044r2021-07-26 05:19 UT2021-07-26 01:19 EDTCA St. ThomasOntario≈3,5s -20---RayA 2
4044s2021-07-26 05:20 UT2021-07-26 01:20 EDTUS MidlandMI≈1,5s -20---KathleenG 3
4044t2021-07-26 05:57 UT2021-07-26 00:57 CDTUS GreendaleWI? -10--?VirginiaC 1
4044u2021-07-26 05:30 UT2021-07-26 01:30 EDTUS Whitmore LakeMI≈1,5s -13---ChristianK 2
Evento 4043-2021
4043a2021-07-26 04:14 UT2021-07-25 22:14 MDTCA NorglenwoldAlberta≈1,5s -13---AndreaS 1
4043b2021-07-26 04:15 UT2021-07-25 22:15 CSTCA AsquithSaskatchewan≈1,5s -16---TravisS 2
4043c2021-07-26 04:15 UT2021-07-25 22:15 MDTCA CochraneAlberta≈1,5s -10---PatC 5
Evento 4042-2021
4042a2021-07-26 03:45 UT2021-07-26 13:15 ACSTAU WhyallaSouth Australia≈3,5s -26--?AndrewP 1
Evento 4041-2021
4041a2021-07-26 02:45 UT2021-07-25 22:45 EDTUS PA≈1,5s -12??tA 1
4041b2021-07-26 02:55 UT2021-07-25 22:55 EDTUS ChestertownNY≈3,5s -12?--RickN 4
Evento 4040-2021
4040a2021-07-26 02:45 UT2021-07-25 22:45 EDTUS Mackinaw CityMI<1s -14--?IanM 3
Evento 4039-2021
4039a2021-07-26 02:05 UT2021-07-25 22:05 EDTUS South Glens FallsNY≈1,5s -12---JeannieB 3
Evento 4038-2021
4038a2021-07-26 02:00 UT2021-07-25 21:00 CDTUS Panama CityFL<1s -15---JaceD 2
Evento 4037-2021
4037a2021-07-25 23:28 UT2021-07-25 20:28 -3 fusi orari BR Bahia≈3,5s 0--MarcosL 3
Evento 4036-2021
4036a2021-07-26 01:25 UT2021-07-25 20:25 CDTUS Lynn HavenFL≈1,5s -17--TroyM 3
4036b2021-07-26 01:43 UT2021-07-25 21:43 EDTUS Kings MountainNC≈1,5s 0--?JeremyS 3
4036c2021-07-26 02:00 UT2021-07-25 22:00 EDTUS BrunswickGA? -26??-StacyW 1
4036d2021-07-26 02:00 UT2021-07-25 22:00 EDTUS NC≈3,5s -9???Aaron K 3
4036e2021-07-26 02:00 UT2021-07-25 22:00 EDTUS JacksonvilleFL≈3,5s -10---KrisR 3
Evento 4034-2021
4034a2021-07-25 23:30 UT2021-07-25 19:30 EDTUS FL≈1,5s -10---VaughnT 2
Evento 4033-2021
4033a2021-07-25 23:00 UT2021-07-25 18:00 CDTUS LexingtonOK≈3,5s -11---carahC 1
4033b2021-07-26 00:01 UT2021-07-25 19:01 CDTUS KellerTX≈1,5s -13---AngelaW 2